Time,TemperatureF,DewpointF,PressureIn,WindDirection,WindDirectionDegrees,WindSpeedMPH,WindSpeedGustMPH,Humidity,HourlyPrecipIn,Conditions,Clouds,dailyrainin,SoftwareType,DateUTC
2013-02-28 00:00:00,31.5,30.2,29.71,NNE,17,7.0,7.0,95,0.00,,---,0.00,VWS V14.01,2013-02-28 05:00:00,
2013-02-28 00:05:00,31.5,30.2,29.71,North,1,4.0,8.0,95,0.00,,---,0.00,VWS V14.01,2013-02-28 05:05:00,
2013-02-28 00:10:00,31.5,30.2,29.71,North,3,7.0,7.0,95,0.00,,---,0.00,VWS V14.01,2013-02-28 05:10:00,
2013-02-28 00:15:00,31.5,30.5,29.71,North,356,5.0,11.0,96,0.00,,---,0.00,VWS V14.01,2013-02-28 05:15:00,
2013-02-28 00:20:00,31.5,30.5,29.70,North,2,4.0,6.0,96,0.00,,---,0.00,VWS V14.01,2013-02-28 05:20:00,
2013-02-28 00:25:00,31.5,30.5,29.71,North,0,6.0,10.0,96,0.00,,---,0.00,VWS V14.01,2013-02-28 05:25:00,
2013-02-28 00:30:00,31.5,30.5,29.71,NNE,18,7.0,10.0,96,0.00,,---,0.00,VWS V14.01,2013-02-28 05:30:00,
2013-02-28 00:35:00,31.5,30.5,29.70,North,8,7.0,12.0,96,0.00,,---,0.00,VWS V14.01,2013-02-28 05:35:00,
2013-02-28 00:40:00,31.5,30.2,29.71,North,357,4.0,5.0,95,0.00,,---,0.00,VWS V14.01,2013-02-28 05:40:00,
2013-02-28 00:45:00,31.5,30.5,29.70,NNE,19,5.0,12.0,96,0.00,,---,0.00,VWS V14.01,2013-02-28 05:45:00,
2013-02-28 00:50:00,31.5,30.5,29.70,North,1,13.0,13.0,96,0.00,,---,0.00,VWS V14.01,2013-02-28 05:50:00,
2013-02-28 00:55:00,31.5,30.5,29.71,North,5,8.0,15.0,96,0.00,,---,0.00,VWS V14.01,2013-02-28 05:55:00,
2013-02-28 01:00:00,31.5,30.2,29.71,North,10,8.0,12.0,95,0.00,,---,0.00,VWS V14.01,2013-02-28 06:00:00,
2013-02-28 01:05:00,31.5,30.5,29.71,North,358,8.0,12.0,96,0.00,,---,0.00,VWS V14.01,2013-02-28 06:05:00,
2013-02-28 01:10:00,31.5,30.2,29.71,NNW,345,8.0,9.0,95,0.00,,---,0.00,VWS V14.01,2013-02-28 06:10:00,
2013-02-28 01:15:00,31.5,30.2,29.71,NW,319,8.0,12.0,95,0.00,,---,0.00,VWS V14.01,2013-02-28 06:15:00,
2013-02-28 01:20:00,31.5,30.2,29.71,North,357,11.0,12.0,95,0.00,,---,0.00,VWS V14.01,2013-02-28 06:20:00,
2013-02-28 01:25:00,31.5,30.2,29.71,NNE,18,5.0,14.0,95,0.00,,---,0.00,VWS V14.01,2013-02-28 06:25:00,
2013-02-28 01:30:00,31.5,30.2,29.71,North,8,5.0,9.0,95,0.00,,---,0.00,VWS V14.01,2013-02-28 06:30:00,
2013-02-28 01:35:00,31.5,30.2,29.72,North,2,8.0,12.0,95,0.00,,---,0.00,VWS V14.01,2013-02-28 06:35:00,
2013-02-28 01:40:00,31.3,30.0,29.72,North,2,7.0,9.0,95,0.00,,---,0.00,VWS V14.01,2013-02-28 06:40:00,
2013-02-28 01:45:00,31.3,30.3,29.72,North,4,10.0,15.0,96,0.00,,---,0.00,VWS V14.01,2013-02-28 06:45:00,
2013-02-28 01:50:00,31.3,30.0,29.72,North,357,7.0,8.0,95,0.00,,---,0.00,VWS V14.01,2013-02-28 06:50:00,
2013-02-28 01:55:00,31.3,30.3,29.72,North,6,5.0,13.0,96,0.00,,---,0.00,VWS V14.01,2013-02-28 06:55:00,
2013-02-28 02:00:00,31.3,30.0,29.72,North,2,6.0,13.0,95,0.00,,---,0.00,VWS V14.01,2013-02-28 07:00:00,
2013-02-28 02:01:00,31.3,30.3,29.72,North,357,6.0,8.0,96,0.00,,---,0.00,VWS V14.01,2013-02-28 07:01:00,
2013-02-28 02:06:00,31.3,30.3,29.72,North,8,8.0,11.0,96,0.00,,---,0.00,VWS V14.01,2013-02-28 07:06:00,
2013-02-28 02:10:00,31.3,30.0,29.73,North,2,8.0,12.0,95,0.00,,---,0.00,VWS V14.01,2013-02-28 07:10:00,
2013-02-28 02:11:00,31.3,30.3,29.73,NNE,18,7.0,10.0,96,0.00,,---,0.00,VWS V14.01,2013-02-28 07:11:00,
2013-02-28 02:16:00,31.3,30.3,29.73,NNE,14,9.0,10.0,96,0.00,,---,0.00,VWS V14.01,2013-02-28 07:16:00,
2013-02-28 02:20:00,31.2,30.2,29.73,North,1,5.0,10.0,96,0.00,,---,0.00,VWS V14.01,2013-02-28 07:20:00,
2013-02-28 02:21:00,31.2,30.2,29.73,North,0,5.0,9.0,96,0.00,,---,0.00,VWS V14.01,2013-02-28 07:21:00,
2013-02-28 02:26:00,31.2,30.2,29.72,North,354,8.0,12.0,96,0.00,,---,0.00,VWS V14.01,2013-02-28 07:26:00,
2013-02-28 02:30:00,31.2,30.2,29.73,NNE,17,7.0,13.0,96,0.00,,---,0.00,VWS V14.01,2013-02-28 07:30:00,
2013-02-28 02:31:00,31.2,30.2,29.73,North,11,8.0,9.0,96,0.00,,---,0.00,VWS V14.01,2013-02-28 07:31:00,
2013-02-28 02:36:00,31.2,30.2,29.73,North,1,7.0,10.0,96,0.00,,---,0.00,VWS V14.01,2013-02-28 07:36:00,
2013-02-28 02:40:00,31.2,30.2,29.73,North,5,5.0,11.0,96,0.00,,---,0.00,VWS V14.01,2013-02-28 07:40:00,
2013-02-28 02:41:00,31.2,30.2,29.73,North,4,4.0,8.0,96,0.00,,---,0.00,VWS V14.01,2013-02-28 07:41:00,
2013-02-28 02:46:00,31.2,30.2,29.72,North,358,5.0,10.0,96,0.00,,---,0.00,VWS V14.01,2013-02-28 07:46:00,
2013-02-28 02:50:00,31.0,30.2,29.72,North,352,4.0,10.0,97,0.00,,---,0.00,VWS V14.01,2013-02-28 07:50:00,
2013-02-28 02:51:00,31.0,30.0,29.72,North,5,5.0,9.0,96,0.00,,---,0.00,VWS V14.01,2013-02-28 07:51:00,
2013-02-28 02:56:00,31.0,30.2,29.73,North,4,7.0,11.0,97,0.00,,---,0.00,VWS V14.01,2013-02-28 07:56:00,
2013-02-28 03:00:00,31.0,30.2,29.72,North,356,5.0,11.0,97,0.00,,---,0.00,VWS V14.01,2013-02-28 08:00:00,
2013-02-28 03:01:00,31.1,30.4,29.72,North,359,4.0,8.0,97,0.00,,---,0.00,VWS V14.01,2013-02-28 08:01:00,
2013-02-28 03:06:00,31.0,30.2,29.72,NNW,348,5.0,9.0,97,0.00,,---,0.00,VWS V14.01,2013-02-28 08:06:00,
2013-02-28 03:10:00,31.0,30.0,29.72,North,353,5.0,11.0,96,0.00,,---,0.00,VWS V14.01,2013-02-28 08:10:00,
2013-02-28 03:11:00,31.0,30.2,29.72,NNE,16,7.0,8.0,97,0.00,,---,0.00,VWS V14.01,2013-02-28 08:11:00,
2013-02-28 03:16:00,31.0,30.2,29.72,North,356,5.0,12.0,97,0.00,,---,0.00,VWS V14.01,2013-02-28 08:16:00,
2013-02-28 03:20:00,31.0,30.2,29.72,North,355,8.0,14.0,97,0.00,,---,0.00,VWS V14.01,2013-02-28 08:20:00,
2013-02-28 03:21:00,30.9,30.1,29.72,NNW,342,9.0,13.0,97,0.00,,---,0.00,VWS V14.01,2013-02-28 08:21:00,
2013-02-28 03:26:00,30.9,30.1,29.72,NNE,18,9.0,14.0,97,0.00,,---,0.00,VWS V14.01,2013-02-28 08:26:00,
2013-02-28 03:30:00,30.9,30.1,29.72,NNE,15,8.0,20.0,97,0.00,,---,0.00,VWS V14.01,2013-02-28 08:30:00,
2013-02-28 03:31:00,30.9,29.9,29.72,North,3,8.0,14.0,96,0.00,,---,0.00,VWS V14.01,2013-02-28 08:31:00,
2013-02-28 03:36:00,30.9,29.9,29.72,North,6,9.0,14.0,96,0.00,,---,0.00,VWS V14.01,2013-02-28 08:36:00,
2013-02-28 03:40:00,30.9,29.9,29.73,NNE,16,9.0,14.0,96,0.00,,---,0.00,VWS V14.01,2013-02-28 08:40:00,
2013-02-28 03:41:00,30.9,29.9,29.72,North,354,11.0,15.0,96,0.00,,---,0.00,VWS V14.01,2013-02-28 08:41:00,
2013-02-28 03:46:00,31.0,30.0,29.72,NNE,17,9.0,15.0,96,0.00,,---,0.00,VWS V14.01,2013-02-28 08:46:00,
2013-02-28 03:50:00,31.0,30.0,29.73,North,6,9.0,15.0,96,0.00,,---,0.00,VWS V14.01,2013-02-28 08:50:00,
2013-02-28 03:51:00,31.0,29.7,29.73,NNE,16,10.0,12.0,95,0.00,,---,0.00,VWS V14.01,2013-02-28 08:51:00,
2013-02-28 03:56:00,31.1,29.8,29.73,North,4,8.0,16.0,95,0.00,,---,0.00,VWS V14.01,2013-02-28 08:56:00,
2013-02-28 04:00:00,31.0,29.7,29.73,North,6,11.0,16.0,95,0.00,,---,0.00,VWS V14.01,2013-02-28 09:00:00,
2013-02-28 04:01:00,31.0,29.7,29.73,NNE,19,11.0,16.0,95,0.00,,---,0.00,VWS V14.01,2013-02-28 09:01:00,
2013-02-28 04:06:00,31.1,29.8,29.73,North,0,9.0,16.0,95,0.00,,---,0.00,VWS V14.01,2013-02-28 09:06:00,
2013-02-28 04:10:00,31.0,29.5,29.73,NNE,23,10.0,16.0,94,0.00,,---,0.00,VWS V14.01,2013-02-28 09:10:00,
2013-02-28 04:11:00,31.0,29.7,29.73,North,10,8.0,13.0,95,0.00,,---,0.00,VWS V14.01,2013-02-28 09:11:00,
2013-02-28 04:16:00,31.1,29.8,29.73,North,3,7.0,14.0,95,0.00,,---,0.00,VWS V14.01,2013-02-28 09:16:00,
2013-02-28 04:20:00,30.9,29.4,29.73,North,7,10.0,15.0,94,0.00,,---,0.00,VWS V14.01,2013-02-28 09:20:00,
2013-02-28 04:21:00,30.9,29.4,29.74,NE,34,5.0,12.0,94,0.00,,---,0.00,VWS V14.01,2013-02-28 09:21:00,
2013-02-28 04:26:00,30.9,29.4,29.74,NNW,338,11.0,15.0,94,0.00,,---,0.00,VWS V14.01,2013-02-28 09:26:00,
2013-02-28 04:30:00,30.9,29.4,29.74,North,350,9.0,15.0,94,0.00,,---,0.00,VWS V14.01,2013-02-28 09:30:00,
2013-02-28 04:31:00,30.9,29.1,29.74,North,0,5.0,12.0,93,0.00,,---,0.00,VWS V14.01,2013-02-28 09:31:00,
2013-02-28 04:37:00,30.9,29.4,29.74,NNE,18,9.0,16.0,94,0.00,,---,0.00,VWS V14.01,2013-02-28 09:37:00,
2013-02-28 04:40:00,30.8,29.0,29.74,NNE,13,9.0,16.0,93,0.00,,---,0.00,VWS V14.01,2013-02-28 09:40:00,
2013-02-28 04:42:00,30.7,29.2,29.74,NE,48,7.0,11.0,94,0.00,,---,0.00,VWS V14.01,2013-02-28 09:42:00,
2013-02-28 04:47:00,30.8,29.3,29.74,North,1,6.0,14.0,94,0.00,,---,0.00,VWS V14.01,2013-02-28 09:47:00,
2013-02-28 04:50:00,30.8,29.3,29.74,North,10,7.0,14.0,94,0.00,,---,0.00,VWS V14.01,2013-02-28 09:50:00,
2013-02-28 04:52:00,30.8,29.0,29.75,NNE,26,11.0,14.0,93,0.00,,---,0.00,VWS V14.01,2013-02-28 09:52:00,
2013-02-28 04:57:00,30.8,29.0,29.75,NNE,26,9.0,14.0,93,0.00,,---,0.00,VWS V14.01,2013-02-28 09:57:00,
2013-02-28 05:00:00,30.9,29.1,29.75,NNE,26,6.0,14.0,93,0.00,,---,0.00,VWS V14.01,2013-02-28 10:00:00,
2013-02-28 05:02:00,30.9,28.9,29.75,NNE,25,9.0,11.0,92,0.00,,---,0.00,VWS V14.01,2013-02-28 10:02:00,
2013-02-28 05:07:00,30.9,28.6,29.75,NE,43,8.0,13.0,91,0.00,,---,0.00,VWS V14.01,2013-02-28 10:07:00,
2013-02-28 05:10:00,30.9,28.9,29.75,NE,40,11.0,14.0,92,0.00,,---,0.00,VWS V14.01,2013-02-28 10:10:00,
2013-02-28 05:12:00,30.9,28.9,29.75,NE,40,6.0,13.0,92,0.00,,---,0.00,VWS V14.01,2013-02-28 10:12:00,
2013-02-28 05:17:00,30.9,28.6,29.75,NE,40,6.0,14.0,91,0.00,,---,0.00,VWS V14.01,2013-02-28 10:17:00,
2013-02-28 05:20:00,30.9,28.6,29.75,North,4,9.0,20.0,91,0.00,,---,0.00,VWS V14.01,2013-02-28 10:20:00,
2013-02-28 05:22:00,31.0,28.7,29.75,North,11,9.0,16.0,91,0.00,,---,0.00,VWS V14.01,2013-02-28 10:22:00,
2013-02-28 05:27:00,31.0,28.4,29.75,NNE,19,11.0,16.0,90,0.00,,---,0.00,VWS V14.01,2013-02-28 10:27:00,
2013-02-28 05:30:00,31.0,28.4,29.75,NNE,26,9.0,16.0,90,0.00,,---,0.00,VWS V14.01,2013-02-28 10:30:00,
2013-02-28 05:32:00,31.0,28.1,29.76,North,10,7.0,16.0,89,0.00,,---,0.00,VWS V14.01,2013-02-28 10:32:00,
2013-02-28 05:37:00,31.0,28.1,29.76,North,11,9.0,16.0,89,0.00,,---,0.00,VWS V14.01,2013-02-28 10:37:00,
2013-02-28 05:40:00,31.0,28.1,29.76,North,11,12.0,16.0,89,0.00,,---,0.00,VWS V14.01,2013-02-28 10:40:00,
2013-02-28 05:42:00,31.0,28.1,29.76,NNE,19,9.0,16.0,89,0.00,,---,0.00,VWS V14.01,2013-02-28 10:42:00,
2013-02-28 05:47:00,31.0,28.1,29.76,NNE,25,8.0,16.0,89,0.00,,---,0.00,VWS V14.01,2013-02-28 10:47:00,
2013-02-28 05:50:00,31.2,28.3,29.76,NNE,19,8.0,16.0,89,0.00,,---,0.00,VWS V14.01,2013-02-28 10:50:00,
2013-02-28 05:52:00,31.1,28.0,29.76,NNE,14,10.0,14.0,88,0.00,,---,0.00,VWS V14.01,2013-02-28 10:52:00,
2013-02-28 05:57:00,31.2,27.8,29.77,NNE,30,8.0,14.0,87,0.00,,---,0.00,VWS V14.01,2013-02-28 10:57:00,
2013-02-28 06:00:00,31.2,27.8,29.76,North,7,9.0,14.0,87,0.00,,---,0.00,VWS V14.01,2013-02-28 11:00:00,
2013-02-28 06:02:00,31.2,27.8,29.77,NNE,28,12.0,16.0,87,0.00,,---,0.00,VWS V14.01,2013-02-28 11:02:00,
2013-02-28 06:07:00,31.2,27.8,29.77,NNE,21,8.0,19.0,87,0.00,,---,0.00,VWS V14.01,2013-02-28 11:07:00,
2013-02-28 06:10:00,31.2,27.8,29.77,North,7,9.0,19.0,87,0.00,,---,0.00,VWS V14.01,2013-02-28 11:10:00,
2013-02-28 06:12:00,31.2,27.8,29.77,NE,42,11.0,17.0,87,0.00,,---,0.00,VWS V14.01,2013-02-28 11:12:00,
2013-02-28 06:17:00,31.2,27.8,29.77,North,2,12.0,17.0,87,0.00,,---,0.00,VWS V14.01,2013-02-28 11:17:00,
2013-02-28 06:20:00,31.2,27.8,29.77,NNE,20,11.0,17.0,87,0.00,,---,0.00,VWS V14.01,2013-02-28 11:20:00,
2013-02-28 06:22:00,31.2,27.8,29.78,North,10,7.0,12.0,87,0.00,,---,0.00,VWS V14.01,2013-02-28 11:22:00,
2013-02-28 06:27:00,31.2,27.8,29.78,NNE,14,6.0,12.0,87,0.00,,---,0.00,VWS V14.01,2013-02-28 11:27:00,
2013-02-28 06:30:00,31.2,27.8,29.78,North,9,8.0,12.0,87,0.00,,---,0.00,VWS V14.01,2013-02-28 11:30:00,
2013-02-28 06:32:00,31.2,27.8,29.78,NNE,20,9.0,16.0,87,0.00,,---,0.00,VWS V14.01,2013-02-28 11:32:00,
2013-02-28 06:38:00,31.0,27.6,29.78,North,7,10.0,16.0,87,0.00,,---,0.00,VWS V14.01,2013-02-28 11:38:00,
2013-02-28 06:40:00,31.0,27.6,29.78,North,11,9.0,17.0,87,0.00,,---,0.00,VWS V14.01,2013-02-28 11:40:00,
2013-02-28 06:43:00,31.0,27.6,29.79,NNE,17,7.0,14.0,87,0.00,,---,0.00,VWS V14.01,2013-02-28 11:43:00,
2013-02-28 06:48:00,30.9,27.5,29.79,NNE,14,10.0,16.0,87,0.00,,---,0.00,VWS V14.01,2013-02-28 11:48:00,
2013-02-28 06:50:00,30.9,27.5,29.79,NNE,13,14.0,16.0,87,0.00,,---,0.00,VWS V14.01,2013-02-28 11:50:00,
2013-02-28 06:53:00,30.9,27.5,29.79,North,5,9.0,14.0,87,0.00,,---,0.00,VWS V14.01,2013-02-28 11:53:00,
2013-02-28 06:58:00,30.9,27.5,29.80,North,3,8.0,14.0,87,0.00,,---,0.00,VWS V14.01,2013-02-28 11:58:00,
2013-02-28 07:00:00,30.9,27.5,29.80,NNE,25,10.0,14.0,87,0.00,,---,0.00,VWS V14.01,2013-02-28 12:00:00,
2013-02-28 07:03:00,30.8,27.4,29.80,NNE,28,7.0,10.0,87,0.00,,---,0.00,VWS V14.01,2013-02-28 12:03:00,
2013-02-28 07:08:00,30.6,27.5,29.80,NNE,19,7.0,12.0,88,0.00,,---,0.00,VWS V14.01,2013-02-28 12:08:00,
2013-02-28 07:10:00,30.6,27.5,29.80,North,0,5.0,12.0,88,0.00,,---,0.00,VWS V14.01,2013-02-28 12:10:00,
2013-02-28 07:13:00,30.6,27.5,29.80,NNE,13,8.0,12.0,88,0.00,,---,0.00,VWS V14.01,2013-02-28 12:13:00,
2013-02-28 07:18:00,30.6,27.2,29.80,North,0,6.0,12.0,87,0.00,,---,0.00,VWS V14.01,2013-02-28 12:18:00,
2013-02-28 07:20:00,30.5,27.4,29.80,North,350,5.0,12.0,88,0.00,,---,0.00,VWS V14.01,2013-02-28 12:20:00,
2013-02-28 07:23:00,30.5,27.4,29.80,North,7,8.0,12.0,88,0.00,,---,0.00,VWS V14.01,2013-02-28 12:23:00,
2013-02-28 07:28:00,30.5,27.1,29.80,NNE,18,17.0,17.0,87,0.00,,---,0.00,VWS V14.01,2013-02-28 12:28:00,
2013-02-28 07:30:00,30.5,27.4,29.81,NNE,15,7.0,17.0,88,0.00,,---,0.00,VWS V14.01,2013-02-28 12:30:00,
2013-02-28 07:33:00,30.5,27.1,29.81,North,9,12.0,14.0,87,0.00,,---,0.00,VWS V14.01,2013-02-28 12:33:00,
2013-02-28 07:38:00,30.5,27.1,29.81,North,3,7.0,14.0,87,0.00,,---,0.00,VWS V14.01,2013-02-28 12:38:00,
2013-02-28 07:40:00,30.5,27.1,29.81,North,357,9.0,14.0,87,0.00,,---,0.00,VWS V14.01,2013-02-28 12:40:00,
2013-02-28 07:43:00,30.5,27.1,29.81,North,358,6.0,11.0,87,0.00,,---,0.00,VWS V14.01,2013-02-28 12:43:00,
2013-02-28 07:48:00,30.3,26.9,29.82,NNW,344,9.0,11.0,87,0.00,,---,0.00,VWS V14.01,2013-02-28 12:48:00,
2013-02-28 07:50:00,30.3,27.2,29.82,North,1,0.0,11.0,88,0.00,,---,0.00,VWS V14.01,2013-02-28 12:50:00,
2013-02-28 07:53:00,30.2,27.1,29.82,North,2,6.0,10.0,88,0.00,,---,0.00,VWS V14.01,2013-02-28 12:53:00,
2013-02-28 07:58:00,30.2,27.4,29.82,North,358,7.0,11.0,89,0.00,,---,0.00,VWS V14.01,2013-02-28 12:58:00,
2013-02-28 08:00:00,30.0,27.2,29.82,North,1,11.0,11.0,89,0.00,,---,0.00,VWS V14.01,2013-02-28 13:00:00,
2013-02-28 08:03:00,30.0,27.2,29.82,North,5,6.0,11.0,89,0.00,,---,0.00,VWS V14.01,2013-02-28 13:03:00,
2013-02-28 08:08:00,30.2,27.1,29.82,North,356,7.0,14.0,88,0.00,,---,0.00,VWS V14.01,2013-02-28 13:08:00,
2013-02-28 08:10:00,30.2,27.1,29.82,NNE,25,10.0,14.0,88,0.00,,---,0.00,VWS V14.01,2013-02-28 13:10:00,
2013-02-28 08:13:00,30.2,27.1,29.83,North,0,2.0,12.0,88,0.00,,---,0.00,VWS V14.01,2013-02-28 13:13:00,
2013-02-28 08:18:00,30.2,27.1,29.83,NNW,344,12.0,16.0,88,0.00,,---,0.00,VWS V14.01,2013-02-28 13:18:00,
2013-02-28 08:20:00,30.2,26.8,29.83,North,359,10.0,16.0,87,0.00,,---,0.00,VWS V14.01,2013-02-28 13:20:00,
2013-02-28 08:23:00,30.2,26.8,29.83,North,9,7.0,10.0,87,0.00,,---,0.00,VWS V14.01,2013-02-28 13:23:00,
2013-02-28 08:28:00,30.0,26.9,29.83,North,6,7.0,13.0,88,0.00,,---,0.00,VWS V14.01,2013-02-28 13:28:00,
2013-02-28 08:30:00,30.0,26.6,29.83,North,10,7.0,13.0,87,0.00,,---,0.00,VWS V14.01,2013-02-28 13:30:00,
2013-02-28 08:33:00,30.0,26.9,29.83,North,1,5.0,12.0,88,0.00,,---,0.00,VWS V14.01,2013-02-28 13:33:00,
2013-02-28 08:38:00,30.0,26.6,29.83,North,0,7.0,15.0,87,0.00,,---,0.00,VWS V14.01,2013-02-28 13:38:00,
2013-02-28 08:40:00,30.0,26.6,29.83,North,7,10.0,15.0,87,0.00,,---,0.00,VWS V14.01,2013-02-28 13:40:00,
2013-02-28 08:43:00,30.0,26.6,29.84,North,9,11.0,16.0,87,0.00,,---,0.00,VWS V14.01,2013-02-28 13:43:00,
2013-02-28 08:48:00,30.0,26.6,29.84,North,4,8.0,16.0,87,0.00,,---,0.00,VWS V14.01,2013-02-28 13:48:00,
2013-02-28 08:50:00,30.0,26.6,29.84,NNW,345,7.0,16.0,87,0.00,,---,0.00,VWS V14.01,2013-02-28 13:50:00,
2013-02-28 08:53:00,30.0,26.6,29.84,North,2,8.0,14.0,87,0.00,,---,0.00,VWS V14.01,2013-02-28 13:53:00,
2013-02-28 08:58:00,30.0,26.6,29.84,NNE,12,7.0,14.0,87,0.00,,---,0.00,VWS V14.01,2013-02-28 13:58:00,
2013-02-28 09:00:00,30.0,26.6,29.84,North,11,8.0,14.0,87,0.00,,---,0.00,VWS V14.01,2013-02-28 14:00:00,
2013-02-28 09:03:00,29.9,26.5,29.84,North,3,9.0,13.0,87,0.00,,---,0.00,VWS V14.01,2013-02-28 14:03:00,
2013-02-28 09:08:00,30.0,26.6,29.84,North,352,6.0,14.0,87,0.00,,---,0.00,VWS V14.01,2013-02-28 14:08:00,
2013-02-28 09:10:00,30.0,26.6,29.84,North,1,12.0,14.0,87,0.00,,---,0.00,VWS V14.01,2013-02-28 14:10:00,
2013-02-28 09:13:00,30.0,26.6,29.85,NNE,13,8.0,13.0,87,0.00,,---,0.00,VWS V14.01,2013-02-28 14:13:00,
2013-02-28 09:18:00,30.0,26.6,29.85,NNE,20,13.0,13.0,87,0.00,,---,0.00,VWS V14.01,2013-02-28 14:18:00,
2013-02-28 09:20:00,30.2,26.8,29.85,North,10,6.0,13.0,87,0.00,,---,0.00,VWS V14.01,2013-02-28 14:20:00,
2013-02-28 09:23:00,30.2,26.5,29.85,NNE,12,7.0,12.0,86,0.00,,---,0.00,VWS V14.01,2013-02-28 14:23:00,
2013-02-28 09:28:00,30.3,26.6,29.85,North,9,6.0,13.0,86,0.00,,---,0.00,VWS V14.01,2013-02-28 14:28:00,
2013-02-28 09:30:00,30.3,26.6,29.85,North,7,7.0,13.0,86,0.00,,---,0.00,VWS V14.01,2013-02-28 14:30:00,
2013-02-28 09:33:00,30.5,26.8,29.85,NNE,13,10.0,12.0,86,0.00,,---,0.00,VWS V14.01,2013-02-28 14:33:00,
2013-02-28 09:38:00,30.5,26.8,29.85,North,357,9.0,14.0,86,0.00,,---,0.00,VWS V14.01,2013-02-28 14:38:00,
2013-02-28 09:40:00,30.5,26.8,29.85,North,359,7.0,14.0,86,0.00,,---,0.00,VWS V14.01,2013-02-28 14:40:00,
2013-02-28 09:43:00,30.3,26.3,29.85,North,352,9.0,16.0,85,0.00,,---,0.00,VWS V14.01,2013-02-28 14:43:00,
2013-02-28 09:48:00,30.3,26.3,29.85,NNE,25,12.0,16.0,85,0.00,,---,0.00,VWS V14.01,2013-02-28 14:48:00,
2013-02-28 09:50:00,30.3,26.6,29.86,North,7,8.0,16.0,86,0.00,,---,0.00,VWS V14.01,2013-02-28 14:50:00,
2013-02-28 09:53:00,30.5,26.8,29.85,North,351,10.0,12.0,86,0.00,,---,0.00,VWS V14.01,2013-02-28 14:53:00,
2013-02-28 09:58:00,30.5,26.8,29.86,North,3,7.0,12.0,86,0.00,,---,0.00,VWS V14.01,2013-02-28 14:58:00,
2013-02-28 10:00:00,30.5,26.8,29.86,North,8,8.0,12.0,86,0.00,,---,0.00,VWS V14.01,2013-02-28 15:00:00,
2013-02-28 10:04:00,30.3,26.6,29.86,NNW,342,12.0,13.0,86,0.00,,---,0.00,VWS V14.01,2013-02-28 15:04:00,
2013-02-28 10:09:00,30.0,26.6,29.86,North,349,11.0,14.0,87,0.00,,---,0.00,VWS V14.01,2013-02-28 15:09:00,
2013-02-28 10:10:00,30.0,26.6,29.86,North,356,9.0,15.0,87,0.00,,---,0.00,VWS V14.01,2013-02-28 15:10:00,
2013-02-28 10:14:00,29.9,26.5,29.86,North,351,10.0,15.0,87,0.00,,---,0.00,VWS V14.01,2013-02-28 15:14:00,
2013-02-28 10:19:00,29.9,26.8,29.86,North,4,5.0,15.0,88,0.00,,---,0.00,VWS V14.01,2013-02-28 15:19:00,
2013-02-28 10:20:00,29.9,26.5,29.86,North,5,8.0,15.0,87,0.00,,---,0.00,VWS V14.01,2013-02-28 15:20:00,
2013-02-28 10:24:00,29.9,26.5,29.86,North,358,13.0,15.0,87,0.00,,---,0.00,VWS V14.01,2013-02-28 15:24:00,
2013-02-28 10:29:00,29.6,26.2,29.86,North,349,11.0,16.0,87,0.00,,---,0.00,VWS V14.01,2013-02-28 15:29:00,
2013-02-28 10:30:00,29.6,25.9,29.87,North,353,9.0,16.0,86,0.00,,---,0.00,VWS V14.01,2013-02-28 15:30:00,
2013-02-28 10:34:00,29.6,25.9,29.86,North,8,8.0,14.0,86,0.00,,---,0.00,VWS V14.01,2013-02-28 15:34:00,
2013-02-28 10:39:00,29.6,25.9,29.87,North,5,4.0,18.0,86,0.00,,---,0.00,VWS V14.01,2013-02-28 15:39:00,
2013-02-28 10:40:00,29.6,25.6,29.87,NNE,25,6.0,18.0,85,0.00,,---,0.00,VWS V14.01,2013-02-28 15:40:00,
2013-02-28 10:44:00,29.8,25.9,29.87,North,359,8.0,14.0,85,0.00,,---,0.00,VWS V14.01,2013-02-28 15:44:00,
2013-02-28 10:49:00,29.9,26.0,29.87,North,1,8.0,14.0,85,0.00,,---,0.00,VWS V14.01,2013-02-28 15:49:00,
2013-02-28 10:50:00,29.9,25.7,29.87,North,1,6.0,14.0,84,0.00,,---,0.00,VWS V14.01,2013-02-28 15:50:00,
2013-02-28 10:54:00,30.2,26.0,29.87,North,0,6.0,12.0,84,0.00,,---,0.00,VWS V14.01,2013-02-28 15:54:00,
2013-02-28 10:59:00,30.0,25.8,29.87,NNW,344,8.0,18.0,84,0.00,,---,0.00,VWS V14.01,2013-02-28 15:59:00,
2013-02-28 11:00:00,30.0,25.5,29.87,North,357,9.0,18.0,83,0.00,,---,0.00,VWS V14.01,2013-02-28 16:00:00,
2013-02-28 11:04:00,29.9,25.4,29.87,North,355,5.0,13.0,83,0.00,,---,0.00,VWS V14.01,2013-02-28 16:04:00,
2013-02-28 11:09:00,29.9,25.4,29.87,NNW,342,10.0,13.0,83,0.00,,---,0.00,VWS V14.01,2013-02-28 16:09:00,
2013-02-28 11:10:00,29.9,25.4,29.87,NNW,340,11.0,13.0,83,0.00,,---,0.00,VWS V14.01,2013-02-28 16:10:00,
2013-02-28 11:14:00,29.8,25.3,29.87,North,356,7.0,14.0,83,0.00,,---,0.00,VWS V14.01,2013-02-28 16:14:00,
2013-02-28 11:19:00,29.7,24.9,29.87,North,353,10.0,14.0,82,0.00,,---,0.00,VWS V14.01,2013-02-28 16:19:00,
2013-02-28 11:20:00,29.7,24.9,29.87,NNW,347,10.0,14.0,82,0.00,,---,0.00,VWS V14.01,2013-02-28 16:20:00,
2013-02-28 11:24:00,29.7,24.9,29.87,North,1,3.0,14.0,82,0.00,,---,0.00,VWS V14.01,2013-02-28 16:24:00,
2013-02-28 11:29:00,29.6,24.5,29.88,North,358,11.0,16.0,81,0.00,,---,0.00,VWS V14.01,2013-02-28 16:29:00,
2013-02-28 11:30:00,29.6,24.5,29.88,North,355,6.0,16.0,81,0.00,,---,0.00,VWS V14.01,2013-02-28 16:30:00,
2013-02-28 11:34:00,29.6,24.8,29.88,NNW,343,11.0,13.0,82,0.00,,---,0.00,VWS V14.01,2013-02-28 16:34:00,
2013-02-28 11:39:00,29.6,24.5,29.88,North,354,10.0,13.0,81,0.00,,---,0.00,VWS V14.01,2013-02-28 16:39:00,
2013-02-28 11:40:00,29.6,24.5,29.88,North,349,9.0,13.0,81,0.00,,---,0.00,VWS V14.01,2013-02-28 16:40:00,
2013-02-28 11:44:00,29.4,24.3,29.88,NNW,348,13.0,16.0,81,0.00,,---,0.00,VWS V14.01,2013-02-28 16:44:00,
2013-02-28 11:49:00,29.3,24.2,29.88,NNW,345,12.0,16.0,81,0.00,,---,0.00,VWS V14.01,2013-02-28 16:49:00,
2013-02-28 11:50:00,29.3,24.2,29.89,NNW,341,9.0,16.0,81,0.00,,---,0.00,VWS V14.01,2013-02-28 16:50:00,
2013-02-28 11:54:00,29.3,24.2,29.89,North,356,10.0,16.0,81,0.00,,---,0.00,VWS V14.01,2013-02-28 16:54:00,
2013-02-28 11:59:00,29.3,24.2,29.89,North,349,10.0,16.0,81,0.00,,---,0.00,VWS V14.01,2013-02-28 16:59:00,
2013-02-28 12:00:00,29.3,24.2,29.89,North,7,7.0,16.0,81,0.00,,---,0.00,VWS V14.01,2013-02-28 17:00:00,
2013-02-28 12:04:00,29.3,24.2,29.89,NNW,339,9.0,16.0,81,0.00,,---,0.00,VWS V14.01,2013-02-28 17:04:00,
2013-02-28 12:09:00,29.3,24.2,29.89,NNW,348,10.0,16.0,81,0.00,,---,0.00,VWS V14.01,2013-02-28 17:09:00,
2013-02-28 12:10:00,29.1,24.0,29.89,NNW,344,13.0,16.0,81,0.00,,---,0.00,VWS V14.01,2013-02-28 17:10:00,
2013-02-28 12:14:00,29.1,24.0,29.89,North,353,8.0,15.0,81,0.00,,---,0.00,VWS V14.01,2013-02-28 17:14:00,
2013-02-28 12:19:00,29.3,24.2,29.90,North,359,8.0,15.0,81,0.00,,---,0.00,VWS V14.01,2013-02-28 17:19:00,
2013-02-28 12:20:00,29.3,24.2,29.90,North,4,9.0,15.0,81,0.00,,---,0.00,VWS V14.01,2013-02-28 17:20:00,
2013-02-28 12:24:00,29.3,24.2,29.90,NNW,343,7.0,14.0,81,0.00,,---,0.00,VWS V14.01,2013-02-28 17:24:00,
2013-02-28 12:29:00,29.3,24.2,29.90,NNW,341,8.0,17.0,81,0.00,,---,0.00,VWS V14.01,2013-02-28 17:29:00,
2013-02-28 12:30:00,29.3,24.2,29.90,NNW,342,8.0,17.0,81,0.00,,---,0.00,VWS V14.01,2013-02-28 17:30:00,
2013-02-28 12:34:00,29.3,24.2,29.90,North,6,7.0,12.0,81,0.00,,---,0.00,VWS V14.01,2013-02-28 17:34:00,
2013-02-28 12:39:00,29.4,24.3,29.90,NNE,12,9.0,15.0,81,0.00,,---,0.00,VWS V14.01,2013-02-28 17:39:00,
2013-02-28 12:40:00,29.4,24.3,29.90,NNE,12,9.0,15.0,81,0.00,,---,0.00,VWS V14.01,2013-02-28 17:40:00,
2013-02-28 12:44:00,29.7,23.7,29.90,NE,40,16.0,16.0,78,0.00,,---,0.00,VWS V14.01,2013-02-28 17:44:00,
2013-02-28 12:49:00,29.9,23.0,29.90,North,9,8.0,8.0,75,0.00,,---,0.00,VWS V14.01,2013-02-28 17:49:00,
2013-02-28 12:50:00,29.9,23.0,29.90,North,10,8.0,16.0,75,0.00,,---,0.00,VWS V14.01,2013-02-28 17:50:00,
2013-02-28 12:55:00,30.0,23.0,29.90,NNE,33,9.0,16.0,75,0.00,,---,0.00,VWS V14.01,2013-02-28 17:55:00,
2013-02-28 13:00:00,30.0,23.4,29.90,NNE,21,7.0,7.0,76,0.00,,---,0.00,VWS V14.01,2013-02-28 18:00:00,
2013-02-28 13:05:00,29.7,23.4,29.90,North,350,5.0,14.0,77,0.00,,---,0.00,VWS V14.01,2013-02-28 18:05:00,
2013-02-28 13:10:00,29.6,23.6,29.90,NNE,16,0.0,9.0,78,0.00,,---,0.00,VWS V14.01,2013-02-28 18:10:00,
2013-02-28 13:15:00,29.3,23.6,29.90,North,2,8.0,15.0,79,0.00,,---,0.00,VWS V14.01,2013-02-28 18:15:00,
2013-02-28 13:20:00,29.0,23.3,29.90,North,5,10.0,13.0,79,0.00,,---,0.00,VWS V14.01,2013-02-28 18:20:00,
2013-02-28 13:25:00,29.0,23.3,29.91,NNW,345,10.0,16.0,79,0.00,,---,0.00,VWS V14.01,2013-02-28 18:25:00,
2013-02-28 13:30:00,28.8,23.1,29.91,NNW,348,6.0,10.0,79,0.00,,---,0.00,VWS V14.01,2013-02-28 18:30:00,
2013-02-28 13:35:00,29.0,23.6,29.90,North,355,14.0,15.0,80,0.00,,---,0.00,VWS V14.01,2013-02-28 18:35:00,
2013-02-28 13:40:00,29.1,23.7,29.91,North,3,8.0,10.0,80,0.00,,---,0.00,VWS V14.01,2013-02-28 18:40:00,
2013-02-28 13:45:00,29.3,23.6,29.91,North,10,11.0,13.0,79,0.00,,---,0.00,VWS V14.01,2013-02-28 18:45:00,
2013-02-28 13:50:00,29.3,23.6,29.91,North,3,13.0,17.0,79,0.00,,---,0.00,VWS V14.01,2013-02-28 18:50:00,
2013-02-28 13:55:00,29.1,23.1,29.91,North,350,11.0,17.0,78,0.00,,---,0.00,VWS V14.01,2013-02-28 18:55:00,
2013-02-28 14:00:00,29.3,23.3,29.91,NNW,347,6.0,6.0,78,0.00,,---,0.00,VWS V14.01,2013-02-28 19:00:00,
2013-02-28 14:05:00,29.4,23.4,29.91,NNW,342,8.0,11.0,78,0.00,,---,0.00,VWS V14.01,2013-02-28 19:05:00,
2013-02-28 14:10:00,29.3,23.0,29.91,NNE,17,14.0,14.0,77,0.00,,---,0.00,VWS V14.01,2013-02-28 19:10:00,
2013-02-28 14:15:00,28.8,22.8,29.91,NNW,345,6.0,14.0,78,0.00,,---,0.00,VWS V14.01,2013-02-28 19:15:00,
2013-02-28 14:20:00,28.8,22.8,29.92,North,5,14.0,16.0,78,0.00,,---,0.00,VWS V14.01,2013-02-28 19:20:00,
2013-02-28 14:25:00,29.3,22.4,29.91,North,359,6.0,16.0,75,0.00,,---,0.00,VWS V14.01,2013-02-28 19:25:00,
2013-02-28 14:30:00,29.6,23.0,29.91,North,5,5.0,10.0,76,0.00,,---,0.00,VWS V14.01,2013-02-28 19:30:00,
2013-02-28 14:35:00,29.7,23.1,29.92,North,8,8.0,14.0,76,0.00,,---,0.00,VWS V14.01,2013-02-28 19:35:00,
2013-02-28 14:40:00,29.8,22.9,29.92,North,6,7.0,12.0,75,0.00,,---,0.00,VWS V14.01,2013-02-28 19:40:00,
2013-02-28 14:45:00,29.6,22.7,29.92,NNE,19,11.0,18.0,75,0.00,,---,0.00,VWS V14.01,2013-02-28 19:45:00,
2013-02-28 14:50:00,29.4,22.1,29.93,North,354,11.0,13.0,74,0.00,,---,0.00,VWS V14.01,2013-02-28 19:50:00,
2013-02-28 14:55:00,29.4,22.1,29.93,NNW,347,10.0,17.0,74,0.00,,---,0.00,VWS V14.01,2013-02-28 19:55:00,
2013-02-28 15:00:00,29.4,21.8,29.93,North,355,10.0,14.0,73,0.00,,---,0.00,VWS V14.01,2013-02-28 20:00:00,
2013-02-28 15:05:00,29.4,21.8,29.93,NNW,345,6.0,17.0,73,0.00,,---,0.00,VWS V14.01,2013-02-28 20:05:00,
2013-02-28 15:10:00,29.6,22.0,29.93,North,8,9.0,12.0,73,0.00,,---,0.00,VWS V14.01,2013-02-28 20:10:00,
2013-02-28 15:15:00,29.7,21.8,29.94,NNW,343,11.0,12.0,72,0.00,,---,0.00,VWS V14.01,2013-02-28 20:15:00,
2013-02-28 15:20:00,29.3,22.4,29.94,NNE,26,9.0,10.0,75,0.00,,---,0.00,VWS V14.01,2013-02-28 20:20:00,
2013-02-28 15:25:00,29.0,22.1,29.94,North,4,13.0,16.0,75,0.00,,---,0.00,VWS V14.01,2013-02-28 20:25:00,
2013-02-28 15:30:00,28.7,21.8,29.94,NNW,333,14.0,14.0,75,0.00,,---,0.00,VWS V14.01,2013-02-28 20:30:00,
2013-02-28 15:35:00,28.5,21.6,29.94,North,355,11.0,20.0,75,0.00,,---,0.00,VWS V14.01,2013-02-28 20:35:00,
2013-02-28 15:40:00,28.4,21.5,29.94,North,355,12.0,19.0,75,0.00,,---,0.00,VWS V14.01,2013-02-28 20:40:00,
2013-02-28 15:45:00,28.4,21.5,29.95,North,358,12.0,19.0,75,0.00,,---,0.00,VWS V14.01,2013-02-28 20:45:00,
2013-02-28 15:50:00,28.5,21.6,29.95,North,3,14.0,14.0,75,0.00,,---,0.00,VWS V14.01,2013-02-28 20:50:00,
2013-02-28 15:55:00,28.5,21.6,29.94,NNW,343,16.0,19.0,75,0.00,,---,0.00,VWS V14.01,2013-02-28 20:55:00,
2013-02-28 16:00:00,28.5,21.3,29.95,North,352,9.0,15.0,74,0.00,,---,0.00,VWS V14.01,2013-02-28 21:00:00,
2013-02-28 16:05:00,28.4,21.2,29.95,North,10,12.0,17.0,74,0.00,,---,0.00,VWS V14.01,2013-02-28 21:05:00,
2013-02-28 16:10:00,28.4,20.9,29.95,North,355,9.0,15.0,73,0.00,,---,0.00,VWS V14.01,2013-02-28 21:10:00,
2013-02-28 16:15:00,28.5,21.3,29.95,NNE,30,9.0,15.0,74,0.00,,---,0.00,VWS V14.01,2013-02-28 21:15:00,
2013-02-28 16:20:00,28.5,21.0,29.95,North,2,12.0,15.0,73,0.00,,---,0.00,VWS V14.01,2013-02-28 21:20:00,
2013-02-28 16:26:00,28.4,20.9,29.95,NNW,345,10.0,15.0,73,0.00,,---,0.00,VWS V14.01,2013-02-28 21:26:00,
2013-02-28 16:30:00,28.4,20.5,29.95,NNW,344,9.0,14.0,72,0.00,,---,0.00,VWS V14.01,2013-02-28 21:30:00,
2013-02-28 16:36:00,28.4,20.5,29.96,NNW,346,12.0,17.0,72,0.00,,---,0.00,VWS V14.01,2013-02-28 21:36:00,
2013-02-28 16:40:00,28.4,20.5,29.96,North,359,6.0,17.0,72,0.00,,---,0.00,VWS V14.01,2013-02-28 21:40:00,
2013-02-28 16:41:00,28.4,20.5,29.96,NNE,17,8.0,10.0,72,0.00,,---,0.00,VWS V14.01,2013-02-28 21:41:00,
2013-02-28 16:46:00,28.4,20.9,29.97,North,10,10.0,16.0,73,0.00,,---,0.00,VWS V14.01,2013-02-28 21:46:00,
2013-02-28 16:50:00,28.4,20.9,29.97,North,354,11.0,16.0,73,0.00,,---,0.00,VWS V14.01,2013-02-28 21:50:00,
2013-02-28 16:51:00,28.2,20.7,29.97,North,352,8.0,11.0,73,0.00,,---,0.00,VWS V14.01,2013-02-28 21:51:00,
2013-02-28 16:56:00,28.2,20.7,29.97,NNW,338,13.0,14.0,73,0.00,,---,0.00,VWS V14.01,2013-02-28 21:56:00,
2013-02-28 17:00:00,28.2,20.7,29.97,North,349,10.0,14.0,73,0.00,,---,0.00,VWS V14.01,2013-02-28 22:00:00,
2013-02-28 17:01:00,28.2,20.4,29.97,North,349,14.0,14.0,72,0.00,,---,0.00,VWS V14.01,2013-02-28 22:01:00,
2013-02-28 17:06:00,28.2,20.4,29.97,NNW,346,11.0,16.0,72,0.00,,---,0.00,VWS V14.01,2013-02-28 22:06:00,
2013-02-28 17:10:00,28.2,20.4,29.97,North,0,8.0,16.0,72,0.00,,---,0.00,VWS V14.01,2013-02-28 22:10:00,
2013-02-28 17:11:00,28.2,20.4,29.97,North,353,11.0,13.0,72,0.00,,---,0.00,VWS V14.01,2013-02-28 22:11:00,
2013-02-28 17:16:00,28.1,20.2,29.97,North,0,7.0,16.0,72,0.00,,---,0.00,VWS V14.01,2013-02-28 22:16:00,
2013-02-28 17:20:00,28.1,20.2,29.98,North,350,10.0,16.0,72,0.00,,---,0.00,VWS V14.01,2013-02-28 22:20:00,
2013-02-28 17:21:00,28.1,20.2,29.98,NNW,345,7.0,12.0,72,0.00,,---,0.00,VWS V14.01,2013-02-28 22:21:00,
2013-02-28 17:26:00,28.1,20.2,29.97,NNW,346,11.0,14.0,72,0.00,,---,0.00,VWS V14.01,2013-02-28 22:26:00,
2013-02-28 17:30:00,28.1,20.2,29.98,NNW,341,9.0,15.0,72,0.00,,---,0.00,VWS V14.01,2013-02-28 22:30:00,
2013-02-28 17:31:00,28.1,20.2,29.98,North,349,9.0,12.0,72,0.00,,---,0.00,VWS V14.01,2013-02-28 22:31:00,
2013-02-28 17:36:00,28.2,20.0,29.98,North,9,9.0,15.0,71,0.00,,---,0.00,VWS V14.01,2013-02-28 22:36:00,
2013-02-28 17:40:00,28.3,20.1,29.99,NNW,348,8.0,15.0,71,0.00,,---,0.00,VWS V14.01,2013-02-28 22:40:00,
2013-02-28 17:41:00,28.2,20.0,29.98,North,1,5.0,9.0,71,0.00,,---,0.00,VWS V14.01,2013-02-28 22:41:00,
2013-02-28 17:46:00,28.2,20.0,29.99,North,351,6.0,14.0,71,0.00,,---,0.00,VWS V14.01,2013-02-28 22:46:00,
2013-02-28 17:50:00,28.2,20.0,29.99,North,0,10.0,19.0,71,0.00,,---,0.00,VWS V14.01,2013-02-28 22:50:00,
2013-02-28 17:51:00,28.2,19.7,29.99,North,354,10.0,15.0,70,0.00,,---,0.00,VWS V14.01,2013-02-28 22:51:00,
2013-02-28 17:56:00,28.2,19.7,29.99,North,357,7.0,15.0,70,0.00,,---,0.00,VWS V14.01,2013-02-28 22:56:00,
2013-02-28 18:00:00,28.2,19.7,29.99,North,9,9.0,18.0,70,0.00,,---,0.00,VWS V14.01,2013-02-28 23:00:00,
2013-02-28 18:01:00,28.1,19.6,29.99,North,353,10.0,17.0,70,0.00,,---,0.00,VWS V14.01,2013-02-28 23:01:00,
2013-02-28 18:06:00,28.1,19.3,29.99,North,7,6.0,17.0,69,0.00,,---,0.00,VWS V14.01,2013-02-28 23:06:00,
2013-02-28 18:10:00,28.1,19.3,29.99,North,350,8.0,17.0,69,0.00,,---,0.00,VWS V14.01,2013-02-28 23:10:00,
2013-02-28 18:11:00,28.1,19.3,29.99,North,4,9.0,14.0,69,0.00,,---,0.00,VWS V14.01,2013-02-28 23:11:00,
2013-02-28 18:16:00,28.1,19.3,30.00,NNW,347,6.0,14.0,69,0.00,,---,0.00,VWS V14.01,2013-02-28 23:16:00,
2013-02-28 18:20:00,28.1,19.3,30.00,North,359,9.0,20.0,69,0.00,,---,0.00,VWS V14.01,2013-02-28 23:20:00,
2013-02-28 18:21:00,28.1,18.9,30.00,North,7,9.0,14.0,68,0.00,,---,0.00,VWS V14.01,2013-02-28 23:21:00,
2013-02-28 18:26:00,28.1,18.6,30.00,North,10,7.0,14.0,67,0.00,,---,0.00,VWS V14.01,2013-02-28 23:26:00,
2013-02-28 18:30:00,27.9,18.4,30.00,North,359,6.0,14.0,67,0.00,,---,0.00,VWS V14.01,2013-02-28 23:30:00,
2013-02-28 18:31:00,27.9,18.4,30.01,NNE,12,11.0,14.0,67,0.00,,---,0.00,VWS V14.01,2013-02-28 23:31:00,
2013-02-28 18:36:00,27.9,18.4,30.01,NNE,13,11.0,15.0,67,0.00,,---,0.00,VWS V14.01,2013-02-28 23:36:00,
2013-02-28 18:40:00,28.1,18.2,30.01,North,0,8.0,17.0,66,0.00,,---,0.00,VWS V14.01,2013-02-28 23:40:00,
2013-02-28 18:41:00,28.1,17.9,30.01,North,10,8.0,13.0,65,0.00,,---,0.00,VWS V14.01,2013-02-28 23:41:00,
2013-02-28 18:46:00,28.1,18.2,30.01,North,11,7.0,13.0,66,0.00,,---,0.00,VWS V14.01,2013-02-28 23:46:00,
2013-02-28 18:50:00,27.9,18.0,30.01,NNE,14,9.0,13.0,66,0.00,,---,0.00,VWS V14.01,2013-02-28 23:50:00,
2013-02-28 18:51:00,27.9,18.0,30.01,NNE,16,8.0,11.0,66,0.00,,---,0.00,VWS V14.01,2013-02-28 23:51:00,
2013-02-28 18:56:00,27.9,17.7,30.01,North,4,8.0,13.0,65,0.00,,---,0.00,VWS V14.01,2013-02-28 23:56:00,
2013-02-28 19:00:00,28.0,17.8,30.01,North,7,10.0,13.0,65,0.00,,---,0.00,VWS V14.01,2013-03-01 00:00:00,
2013-02-28 19:01:00,27.9,17.7,30.01,North,357,8.0,12.0,65,0.00,,---,0.00,VWS V14.01,2013-03-01 00:01:00,
2013-02-28 19:06:00,27.9,17.7,30.02,NNE,14,6.0,14.0,65,0.00,,---,0.00,VWS V14.01,2013-03-01 00:06:00,
2013-02-28 19:10:00,27.9,17.7,30.02,North,358,11.0,14.0,65,0.00,,---,0.00,VWS V14.01,2013-03-01 00:10:00,
2013-02-28 19:11:00,27.9,17.7,30.02,NNE,28,10.0,13.0,65,0.00,,---,0.00,VWS V14.01,2013-03-01 00:11:00,
2013-02-28 19:16:00,27.9,17.7,30.02,North,351,9.0,14.0,65,0.00,,---,0.00,VWS V14.01,2013-03-01 00:16:00,
2013-02-28 19:20:00,27.9,17.7,30.02,North,353,7.0,14.0,65,0.00,,---,0.00,VWS V14.01,2013-03-01 00:20:00,
2013-02-28 19:21:00,27.9,17.7,30.03,North,1,5.0,9.0,65,0.00,,---,0.00,VWS V14.01,2013-03-01 00:21:00,
2013-02-28 19:26:00,27.8,17.6,30.03,NNE,26,10.0,11.0,65,0.00,,---,0.00,VWS V14.01,2013-03-01 00:26:00,
2013-02-28 19:30:00,27.8,17.9,30.03,NNW,346,10.0,12.0,66,0.00,,---,0.00,VWS V14.01,2013-03-01 00:30:00,
2013-02-28 19:32:00,27.8,18.3,30.03,North,356,7.0,14.0,67,0.00,,---,0.00,VWS V14.01,2013-03-01 00:32:00,
2013-02-28 19:37:00,27.7,17.8,30.03,NNW,346,3.0,14.0,66,0.00,,---,0.00,VWS V14.01,2013-03-01 00:37:00,
2013-02-28 19:40:00,27.7,17.8,30.03,NNW,345,7.0,14.0,66,0.00,,---,0.00,VWS V14.01,2013-03-01 00:40:00,
2013-02-28 19:42:00,27.7,18.2,30.03,North,0,0.0,12.0,67,0.00,,---,0.00,VWS V14.01,2013-03-01 00:42:00,
2013-02-28 19:47:00,27.6,18.1,30.03,NNE,13,6.0,14.0,67,0.00,,---,0.00,VWS V14.01,2013-03-01 00:47:00,
2013-02-28 19:50:00,27.7,18.2,30.04,NNE,13,13.0,14.0,67,0.00,,---,0.00,VWS V14.01,2013-03-01 00:50:00,
2013-02-28 19:52:00,27.6,17.7,30.04,NNW,338,8.0,13.0,66,0.00,,---,0.00,VWS V14.01,2013-03-01 00:52:00,
2013-02-28 19:57:00,27.7,17.5,30.04,North,3,5.0,13.0,65,0.00,,---,0.00,VWS V14.01,2013-03-01 00:57:00,
2013-02-28 20:00:00,27.7,17.5,30.04,North,356,7.0,13.0,65,0.00,,---,0.00,VWS V14.01,2013-03-01 01:00:00,
2013-02-28 20:02:00,27.6,17.4,30.04,NE,35,7.0,12.0,65,0.00,,---,0.00,VWS V14.01,2013-03-01 01:02:00,
2013-02-28 20:07:00,27.6,17.4,30.04,NNE,15,7.0,17.0,65,0.00,,---,0.00,VWS V14.01,2013-03-01 01:07:00,
2013-02-28 20:10:00,27.7,17.1,30.04,North,356,8.0,17.0,64,0.00,,---,0.00,VWS V14.01,2013-03-01 01:10:00,
2013-02-28 20:12:00,27.6,17.4,30.04,North,9,10.0,11.0,65,0.00,,---,0.00,VWS V14.01,2013-03-01 01:12:00,
2013-02-28 20:17:00,27.5,16.9,30.04,NNE,19,11.0,15.0,64,0.00,,---,0.00,VWS V14.01,2013-03-01 01:17:00,
2013-02-28 20:20:00,27.5,16.9,30.04,North,354,10.0,15.0,64,0.00,,---,0.00,VWS V14.01,2013-03-01 01:20:00,
2013-02-28 20:22:00,27.4,16.8,30.04,North,356,9.0,16.0,64,0.00,,---,0.00,VWS V14.01,2013-03-01 01:22:00,
2013-02-28 20:27:00,27.0,16.5,30.04,North,359,9.0,16.0,64,0.00,,---,0.00,VWS V14.01,2013-03-01 01:27:00,
2013-02-28 20:30:00,27.1,16.6,30.04,North,3,11.0,16.0,64,0.00,,---,0.00,VWS V14.01,2013-03-01 01:30:00,
2013-02-28 20:32:00,26.7,16.2,30.04,NNE,13,7.0,12.0,64,0.00,,---,0.00,VWS V14.01,2013-03-01 01:32:00,
2013-02-28 20:37:00,26.6,16.1,30.05,North,359,5.0,14.0,64,0.00,,---,0.00,VWS V14.01,2013-03-01 01:37:00,
2013-02-28 20:40:00,26.5,16.0,30.05,North,1,6.0,14.0,64,0.00,,---,0.00,VWS V14.01,2013-03-01 01:40:00,
2013-02-28 20:42:00,26.3,15.8,30.05,North,0,12.0,15.0,64,0.00,,---,0.00,VWS V14.01,2013-03-01 01:42:00,
2013-02-28 20:47:00,26.1,15.6,30.05,North,7,9.0,15.0,64,0.00,,---,0.00,VWS V14.01,2013-03-01 01:47:00,
2013-02-28 20:50:00,26.1,15.6,30.05,North,352,9.0,15.0,64,0.00,,---,0.00,VWS V14.01,2013-03-01 01:50:00,
2013-02-28 20:52:00,26.0,15.5,30.04,North,3,13.0,15.0,64,0.00,,---,0.00,VWS V14.01,2013-03-01 01:52:00,
2013-02-28 20:57:00,25.9,15.8,30.05,NW,317,6.0,15.0,65,0.00,,---,0.00,VWS V14.01,2013-03-01 01:57:00,
2013-02-28 21:00:00,25.7,15.6,30.05,NW,315,6.0,15.0,65,0.00,,---,0.00,VWS V14.01,2013-03-01 02:00:00,
2013-02-28 21:02:00,25.4,14.9,30.05,NNE,18,5.0,11.0,64,0.00,,---,0.00,VWS V14.01,2013-03-01 02:02:00,
2013-02-28 21:07:00,25.4,15.3,30.05,NNE,23,8.0,13.0,65,0.00,,---,0.00,VWS V14.01,2013-03-01 02:07:00,
2013-02-28 21:10:00,25.2,15.4,30.06,North,2,6.0,13.0,66,0.00,,---,0.00,VWS V14.01,2013-03-01 02:10:00,
2013-02-28 21:12:00,25.2,15.1,30.06,NNE,23,6.0,12.0,65,0.00,,---,0.00,VWS V14.01,2013-03-01 02:12:00,
2013-02-28 21:17:00,25.1,15.0,30.06,North,3,7.0,14.0,65,0.00,,---,0.00,VWS V14.01,2013-03-01 02:17:00,
2013-02-28 21:20:00,25.1,15.0,30.06,NNE,19,6.0,14.0,65,0.00,,---,0.00,VWS V14.01,2013-03-01 02:20:00,
2013-02-28 21:22:00,25.1,15.0,30.06,NNE,24,7.0,9.0,65,0.00,,---,0.00,VWS V14.01,2013-03-01 02:22:00,
2013-02-28 21:27:00,25.1,15.4,30.06,NNE,16,8.0,15.0,66,0.00,,---,0.00,VWS V14.01,2013-03-01 02:27:00,
2013-02-28 21:30:00,25.1,15.4,30.06,NNE,21,9.0,15.0,66,0.00,,---,0.00,VWS V14.01,2013-03-01 02:30:00,
2013-02-28 21:32:00,25.1,15.0,30.06,NNE,16,11.0,15.0,65,0.00,,---,0.00,VWS V14.01,2013-03-01 02:32:00,
2013-02-28 21:37:00,25.2,15.1,30.07,NNE,15,8.0,15.0,65,0.00,,---,0.00,VWS V14.01,2013-03-01 02:37:00,
2013-02-28 21:40:00,25.1,15.0,30.06,North,11,5.0,15.0,65,0.00,,---,0.00,VWS V14.01,2013-03-01 02:40:00,
2013-02-28 21:42:00,24.9,14.8,30.07,North,7,7.0,12.0,65,0.00,,---,0.00,VWS V14.01,2013-03-01 02:42:00,
2013-02-28 21:47:00,24.8,14.7,30.07,North,5,9.0,13.0,65,0.00,,---,0.00,VWS V14.01,2013-03-01 02:47:00,
2013-02-28 21:50:00,24.8,14.7,30.06,NNE,14,7.0,13.0,65,0.00,,---,0.00,VWS V14.01,2013-03-01 02:50:00,
2013-02-28 21:52:00,24.8,14.7,30.07,North,8,7.0,10.0,65,0.00,,---,0.00,VWS V14.01,2013-03-01 02:52:00,
2013-02-28 21:57:00,24.5,14.4,30.06,NNE,26,7.0,11.0,65,0.00,,---,0.00,VWS V14.01,2013-03-01 02:57:00,
2013-02-28 22:00:00,24.5,14.4,30.06,North,353,10.0,11.0,65,0.00,,---,0.00,VWS V14.01,2013-03-01 03:00:00,
2013-02-28 22:02:00,24.5,14.4,30.07,North,10,6.0,12.0,65,0.00,,---,0.00,VWS V14.01,2013-03-01 03:02:00,
2013-02-28 22:07:00,24.3,14.6,30.07,North,0,5.0,14.0,66,0.00,,---,0.00,VWS V14.01,2013-03-01 03:07:00,
2013-02-28 22:10:00,24.4,14.7,30.07,NNE,12,4.0,14.0,66,0.00,,---,0.00,VWS V14.01,2013-03-01 03:10:00,
2013-02-28 22:12:00,24.3,14.6,30.07,North,9,7.0,8.0,66,0.00,,---,0.00,VWS V14.01,2013-03-01 03:12:00,
2013-02-28 22:17:00,24.3,14.6,30.07,NNE,12,9.0,12.0,66,0.00,,---,0.00,VWS V14.01,2013-03-01 03:17:00,
2013-02-28 22:20:00,24.4,14.7,30.07,NNW,343,11.0,12.0,66,0.00,,---,0.00,VWS V14.01,2013-03-01 03:20:00,
2013-02-28 22:23:00,24.3,14.2,30.07,NNE,12,7.0,11.0,65,0.00,,---,0.00,VWS V14.01,2013-03-01 03:23:00,
2013-02-28 22:28:00,24.4,14.3,30.07,North,8,8.0,14.0,65,0.00,,---,0.00,VWS V14.01,2013-03-01 03:28:00,
2013-02-28 22:30:00,24.5,14.4,30.08,North,359,6.0,14.0,65,0.00,,---,0.00,VWS V14.01,2013-03-01 03:30:00,
2013-02-28 22:32:00,24.5,14.8,30.08,North,1,6.0,8.0,66,0.00,,---,0.00,VWS V14.01,2013-03-01 03:32:00,
2013-02-28 22:37:00,24.3,14.6,30.08,NNE,12,7.0,10.0,66,0.00,,---,0.00,VWS V14.01,2013-03-01 03:37:00,
2013-02-28 22:40:00,24.5,14.8,30.08,NNE,15,10.0,12.0,66,0.00,,---,0.00,VWS V14.01,2013-03-01 03:40:00,
2013-02-28 22:43:00,24.5,14.8,30.08,North,1,11.0,12.0,66,0.00,,---,0.00,VWS V14.01,2013-03-01 03:43:00,
2013-02-28 22:48:00,24.3,14.6,30.08,NNE,18,0.0,13.0,66,0.00,,---,0.00,VWS V14.01,2013-03-01 03:48:00,
2013-02-28 22:50:00,24.3,14.2,30.08,NNE,22,10.0,13.0,65,0.00,,---,0.00,VWS V14.01,2013-03-01 03:50:00,
2013-02-28 22:52:00,24.4,14.3,30.08,North,11,9.0,16.0,65,0.00,,---,0.00,VWS V14.01,2013-03-01 03:52:00,
2013-02-28 22:57:00,24.3,14.6,30.08,North,6,9.0,16.0,66,0.00,,---,0.00,VWS V14.01,2013-03-01 03:57:00,
2013-02-28 23:00:00,24.3,14.6,30.08,North,6,6.0,16.0,66,0.00,,---,0.00,VWS V14.01,2013-03-01 04:00:00,
2013-02-28 23:02:00,24.2,14.5,30.08,North,3,8.0,13.0,66,0.00,,---,0.00,VWS V14.01,2013-03-01 04:02:00,
2013-02-28 23:08:00,24.2,14.5,30.08,North,10,8.0,16.0,66,0.00,,---,0.00,VWS V14.01,2013-03-01 04:08:00,
2013-02-28 23:10:00,24.2,14.5,30.08,North,10,8.0,16.0,66,0.00,,---,0.00,VWS V14.01,2013-03-01 04:10:00,
2013-02-28 23:13:00,24.2,14.5,30.08,North,0,6.0,15.0,66,0.00,,---,0.00,VWS V14.01,2013-03-01 04:13:00,
2013-02-28 23:18:00,24.0,14.3,30.08,North,350,10.0,15.0,66,0.00,,---,0.00,VWS V14.01,2013-03-01 04:18:00,
2013-02-28 23:20:00,24.0,14.3,30.08,North,8,12.0,15.0,66,0.00,,---,0.00,VWS V14.01,2013-03-01 04:20:00,
2013-02-28 23:23:00,24.0,14.3,30.08,NNE,29,13.0,16.0,66,0.00,,---,0.00,VWS V14.01,2013-03-01 04:23:00,
2013-02-28 23:28:00,23.9,14.2,30.08,NNE,12,5.0,16.0,66,0.00,,---,0.00,VWS V14.01,2013-03-01 04:28:00,
2013-02-28 23:30:00,23.9,14.6,30.09,NNE,18,9.0,16.0,67,0.00,,---,0.00,VWS V14.01,2013-03-01 04:30:00,
2013-02-28 23:33:00,23.9,14.2,30.09,North,7,14.0,16.0,66,0.00,,---,0.00,VWS V14.01,2013-03-01 04:33:00,
2013-02-28 23:38:00,23.9,14.6,30.09,NE,34,0.0,16.0,67,0.00,,---,0.00,VWS V14.01,2013-03-01 04:38:00,
2013-02-28 23:40:00,23.7,14.0,30.09,North,10,12.0,16.0,66,0.00,,---,0.00,VWS V14.01,2013-03-01 04:40:00,
2013-02-28 23:43:00,23.6,13.9,30.09,NNE,32,9.0,16.0,66,0.00,,---,0.00,VWS V14.01,2013-03-01 04:43:00,
2013-02-28 23:48:00,23.3,13.6,30.09,NNE,21,10.0,16.0,66,0.00,,---,0.00,VWS V14.01,2013-03-01 04:48:00,
2013-02-28 23:50:00,23.3,13.6,30.09,NNE,23,9.0,16.0,66,0.00,,---,0.00,VWS V14.01,2013-03-01 04:50:00,
2013-02-28 23:53:00,23.2,13.5,30.09,NNE,14,9.0,14.0,66,0.00,,---,0.00,VWS V14.01,2013-03-01 04:53:00,
2013-02-28 23:58:00,23.2,13.5,30.09,NNE,13,9.0,14.0,66,0.00,,---,0.00,VWS V14.01,2013-03-01 04:58:00,